Tracking 19628 objects as of 26-May-2019
HD Live streaming from Space Station
objects crossing your sky now
Watch Starlink satellites crossing your sky!

CZ-4B R/B

Track CZ-4B R/B now!
10-day predictions


NORAD ID: 43656
Int'l Code: 2018-081B
Perigee: 647.2 km
Apogee: 947.7 km
Inclination: 99.4 °
Period: 100.7 minutes
Semi major axis: 7168 km
RCS: Unknown
Launch date: October 24, 2018
Source: People's Republic of China (PRC)
Launch site: Taiyaun Space Center, China (TSC)

Note: This is a ROCKET BODY
aabbcc
Your satellite tracking list
Your tracking list is empty




NASA's NSSDC Master Catalog

Two Line Element Set (TLE):
1 43656U 18081B   19145.92956572 -.00000052 +00000-0 +15240-5 0  9992
2 43656 099.4388 174.6935 0209604 116.8912 245.3858 14.30412878030445
Source of the keplerian elements: AFSPC